Regional Weather Roundup
Issued by NWS

Home | Current Version | Previous Version | Graphics & Text | Print | Product List | Glossary Off
Versions: 1 2 3 4 5 6 7 8 9 10 11 12 13 14 15 16 17 18 19 20 21 22 23 24 25 26 27 28 29 30 31 32 33 34 35 36 37 38 39 40 41 42 43 44 45 46 47 48 49 50

000
ASUS43 KTOP 011108
RWRKS

WEATHER ROUNDUP FOR KANSAS
NATIONAL WEATHER SERVICE GOODLAND KS
600 AM CDT TUE SEP 01 2015

NOTE:  "FAIR" INDICATES FEW OR NO CLOUDS BELOW 12,000 FEET WITH NO
SIGNIFICANT WEATHER AND/OR OBSTRUCTIONS TO VISIBILITY.

KSZ001>006-013>018-027>032-041>047-011200-
NORTHWEST KANSAS

CITY           SKY/WX    TMP DP  RH WIND       PRES   REMARKS
GOODLAND       PTCLDY    62  59  90 SW9       30.01S
HAYS           MOCLDY    73  57  56 S12       29.95F
HILL CITY      CLOUDY    73  56  54 S3        29.94F
RUSSELL        PTCLDY    74  61  63 S18       29.94F
$$

KSZ061>065-074>080-084>089-011200-
SOUTHWEST KANSAS

CITY           SKY/WX    TMP DP  RH WIND       PRES   REMARKS
DODGE CITY     PTCLDY    69  59  70 S16       29.98S
ELKHART          N/A     66  56  70 W2          N/A
GARDEN CITY    PTCLDY    64  58  80 S8        29.95S
GREAT BEND     PTCLDY    73  59  60 S18G25    29.96F
LIBERAL        CLEAR     64  54  68 S8        29.99S
PRATT          CLEAR     70  59  68 MISG      30.00F
$$

KSZ066>073-081>083-090>101-011200-
SOUTHEAST KANSAS

CITY           SKY/WX    TMP DP  RH WIND       PRES   REMARKS
CHANUTE        CLEAR     70  67  90 S6        30.03R
COFFEYVILLE    CLEAR     69  67  93 SE3       30.03R
HUTCHINSON     CLEAR     68  61  78 SE8       30.00R
MEDICINE LODGE   N/A     70  62  76 SE8       29.99F
NEWTON         CLEAR     72  59  64 S13       30.03S
PARSONS        CLEAR     70  68  93 S5        30.04R
WICHITA INTL   PTCLDY    69  63  81 S7        30.01R
WICHITA JABRA  CLEAR     72  63  73 S10       30.01R
WICHITA MCCONL CLEAR     70  62  75 S10       30.01S
WINFIELD       CLEAR     71  63  75 S6        30.03R
$$

KSZ007>012-019>026-033>040-048>060-102>105-011200-
NORTHEAST KANSAS

CITY           SKY/WX    TMP DP  RH WIND       PRES   REMARKS
CONCORDIA      CLEAR     74  61  63 S17       29.94S
EMPORIA        CLEAR     70  66  87 S10       30.01R
LAWRENCE       CLEAR     70  68  93 SE5       30.01R
MANHATTAN      CLEAR     69  65  86 CALM      29.97S
MARYSVILLE     CLEAR    N/A N/A N/A S7        29.97R
OLATHE IND     CLEAR     71  68  90 S9        30.03R
OLATHE EXE     CLEAR     71  68  90 S6        30.02R
SALINA         PTCLDY    70  62  76 S8        29.97R
TOPEKA BILLARD CLEAR     73  69  87 CALM      30.00R
TOPEKA FORBES  CLEAR     73  68  84 S9        30.00R
$$


USA.gov is the U.S. government's official web portal to all federal, state and local government web resources and services.